DLH4EV EDDF-EDDS

Flight info

Callsign DLH4EV
Flight time 0h 20m
Altitude 19000
Route ANEKI2L/18 ANEKI Y163 NEKLO Y171 INKAM N850 KRH T128 BADSO BADSO2A
Aircraft A319/M-SDE3FGHIRWY/LB1

Departure

Time 2026-04-14 21:28
Airport Frankfurt Main Airport (EDDF)

Arrival

Time 2026-04-14 21:48
Airport Stuttgart Airport (EDDS)
Time Latitude Longitude Altitude Speed Heading
2026-04-14 21:01 50.04532 8.56589 364 ft 0 kts 115°
2026-04-14 21:18 50.04535 8.56580 356 ft 2 kts 115°
2026-04-14 21:18 50.04543 8.56552 363 ft 3 kts 116°
2026-04-14 21:19 50.04552 8.56524 365 ft 3 kts 120°
2026-04-14 21:19 50.04563 8.56497 361 ft 3 kts 128°
2026-04-14 21:19 50.04576 8.56475 364 ft 3 kts 152°
2026-04-14 21:19 50.04590 8.56468 360 ft 2 kts 201°
2026-04-14 21:20 50.04591 8.56468 360 ft 1 kts 205°
2026-04-14 21:20 50.04575 8.56457 360 ft 2 kts 205°
2026-04-14 21:20 50.04569 8.56453 361 ft 0 kts 205°
2026-04-14 21:22 50.04568 8.56452 361 ft 1 kts 205°
2026-04-14 21:22 50.04544 8.56434 357 ft 7 kts 207°
2026-04-14 21:22 50.04508 8.56352 356 ft 12 kts 249°
2026-04-14 21:22 50.04475 8.56216 357 ft 14 kts 250°
2026-04-14 21:23 50.04439 8.56067 363 ft 15 kts 241°
2026-04-14 21:23 50.04346 8.56053 358 ft 16 kts 157°
2026-04-14 21:23 50.04254 8.56004 359 ft 17 kts 250°
2026-04-14 21:23 50.04210 8.55820 357 ft 19 kts 249°
2026-04-14 21:24 50.04160 8.55607 356 ft 24 kts 250°
2026-04-14 21:24 50.04101 8.55359 355 ft 25 kts 249°
2026-04-14 21:24 50.04041 8.55113 355 ft 25 kts 249°
2026-04-14 21:24 50.03980 8.54859 357 ft 26 kts 249°
2026-04-14 21:25 50.03914 8.54588 350 ft 28 kts 249°
2026-04-14 21:25 50.03832 8.54311 349 ft 29 kts 236°
2026-04-14 21:25 50.03752 8.54023 350 ft 29 kts 250°
2026-04-14 21:25 50.03680 8.53720 343 ft 30 kts 249°
2026-04-14 21:26 50.03607 8.53428 340 ft 29 kts 249°
2026-04-14 21:26 50.03538 8.53142 338 ft 24 kts 249°
2026-04-14 21:26 50.03479 8.52903 337 ft 24 kts 249°
2026-04-14 21:26 50.03420 8.52675 336 ft 17 kts 248°
2026-04-14 21:27 50.03352 8.52593 336 ft 15 kts 180°
2026-04-14 21:27 50.03090 8.52596 336 ft 76 kts 179°
2026-04-14 21:27 50.02319 8.52605 331 ft 146 kts 180°
2026-04-14 21:27 50.01236 8.52615 889 ft 156 kts 179°
2026-04-14 21:28 50.00134 8.52659 1659 ft 159 kts 175°
2026-04-14 21:28 49.98973 8.52744 2148 ft 178 kts 173°
2026-04-14 21:28 49.97667 8.52858 2624 ft 201 kts 174°
2026-04-14 21:28 49.96179 8.52979 3128 ft 226 kts 175°
2026-04-14 21:29 49.94579 8.53101 4070 ft 230 kts 175°
2026-04-14 21:29 49.92973 8.53212 5140 ft 232 kts 176°
2026-04-14 21:29 49.91345 8.53311 6116 ft 236 kts 176°
2026-04-14 21:29 49.89685 8.53412 7055 ft 241 kts 176°
2026-04-14 21:30 49.87977 8.53515 7818 ft 255 kts 178°
2026-04-14 21:30 49.86127 8.53622 8453 ft 274 kts 178°
2026-04-14 21:30 49.84191 8.53734 9375 ft 281 kts 179°
2026-04-14 21:30 49.82224 8.53845 10347 ft 285 kts 179°
2026-04-14 21:31 49.80167 8.53958 10846 ft 308 kts 179°
2026-04-14 21:31 49.77945 8.54079 11240 ft 330 kts 179°
2026-04-14 21:31 49.75611 8.54209 11912 ft 341 kts 178°
2026-04-14 21:31 49.73214 8.54344 12690 ft 348 kts 178°
2026-04-14 21:32 49.70771 8.54484 13465 ft 355 kts 178°
2026-04-14 21:32 49.68281 8.54629 14213 ft 362 kts 177°
2026-04-14 21:32 49.65745 8.54772 14933 ft 367 kts 178°
2026-04-14 21:32 49.63184 8.54911 15685 ft 370 kts 178°
2026-04-14 21:33 49.60600 8.55049 16442 ft 373 kts 178°
2026-04-14 21:33 49.57990 8.55189 17047 ft 377 kts 178°
2026-04-14 21:33 49.55371 8.55334 17232 ft 377 kts 178°
2026-04-14 21:33 49.52727 8.55482 17262 ft 384 kts 178°
2026-04-14 21:34 49.50051 8.55631 17279 ft 385 kts 178°
2026-04-14 21:34 49.47369 8.55780 17275 ft 386 kts 178°
2026-04-14 21:34 49.45592 8.55879 17272 ft 386 kts 178°
2026-04-14 21:34 49.42910 8.56031 17278 ft 386 kts 178°
2026-04-14 21:35 49.40221 8.56186 17278 ft 386 kts 178°
2026-04-14 21:35 49.37534 8.56342 17276 ft 386 kts 178°
2026-04-14 21:35 49.34858 8.56493 17176 ft 381 kts 178°
2026-04-14 21:35 49.32240 8.56636 16912 ft 372 kts 178°
2026-04-14 21:36 49.29667 8.56772 16653 ft 369 kts 178°
2026-04-14 21:36 49.27110 8.56909 16396 ft 367 kts 178°
2026-04-14 21:36 49.24560 8.57051 16141 ft 366 kts 178°
2026-04-14 21:36 49.22021 8.57192 15888 ft 365 kts 178°
2026-04-14 21:37 49.19486 8.57330 15633 ft 363 kts 178°
2026-04-14 21:37 49.16971 8.57462 15385 ft 361 kts 178°
2026-04-14 21:37 49.14471 8.57593 15126 ft 359 kts 178°
2026-04-14 21:37 49.11980 8.57727 14901 ft 358 kts 178°
2026-04-14 21:38 49.09502 8.57864 14628 ft 353 kts 178°
2026-04-14 21:38 49.07058 8.57999 14175 ft 351 kts 178°
2026-04-14 21:38 49.04619 8.58132 13655 ft 349 kts 178°
2026-04-14 21:38 49.02201 8.58264 13167 ft 346 kts 177°
2026-04-14 21:39 48.99828 8.58752 12683 ft 343 kts 166°
2026-04-14 21:39 48.97629 8.59949 12198 ft 339 kts 154°
2026-04-14 21:39 48.95587 8.61711 11713 ft 336 kts 149°
2026-04-14 21:39 48.93579 8.63508 11222 ft 333 kts 149°
2026-04-14 21:40 48.91583 8.65280 10736 ft 331 kts 149°
2026-04-14 21:40 48.89607 8.67028 10426 ft 323 kts 150°
2026-04-14 21:40 48.87706 8.68708 10300 ft 310 kts 150°
2026-04-14 21:40 48.85880 8.70320 10176 ft 297 kts 150°
2026-04-14 21:41 48.84116 8.71875 9905 ft 291 kts 150°
2026-04-14 21:41 48.82358 8.73422 9660 ft 285 kts 149°
2026-04-14 21:41 48.80634 8.74938 9226 ft 287 kts 149°
2026-04-14 21:41 48.78916 8.76445 8737 ft 287 kts 149°
2026-04-14 21:42 48.77223 8.77925 8416 ft 282 kts 149°
2026-04-14 21:42 48.75538 8.79402 7954 ft 278 kts 149°
2026-04-14 21:42 48.73868 8.80868 7439 ft 276 kts 149°
2026-04-14 21:42 48.72213 8.82320 6961 ft 273 kts 149°
2026-04-14 21:43 48.70573 8.83756 6522 ft 271 kts 149°
2026-04-14 21:43 48.68947 8.85176 5993 ft 271 kts 148°
2026-04-14 21:43 48.67312 8.86607 5690 ft 263 kts 148°
2026-04-14 21:43 48.65822 8.88121 5428 ft 253 kts 136°
2026-04-14 21:44 48.64740 8.90117 5249 ft 240 kts 119°
2026-04-14 21:44 48.64117 8.92383 5051 ft 230 kts 104°
2026-04-14 21:44 48.63925 8.94705 4822 ft 223 kts 89°
2026-04-14 21:44 48.64160 8.96993 4529 ft 220 kts 75°
2026-04-14 21:45 48.64603 8.99207 4219 ft 219 kts 73°
2026-04-14 21:45 48.65060 9.01392 3922 ft 217 kts 74°
2026-04-14 21:45 48.65480 9.03564 3631 ft 212 kts 76°
2026-04-14 21:45 48.65854 9.05671 3284 ft 203 kts 76°
2026-04-14 21:46 48.66204 9.07684 3010 ft 194 kts 74°
2026-04-14 21:46 48.66577 9.09547 2835 ft 177 kts 74°
2026-04-14 21:46 48.66888 9.11198 2707 ft 150 kts 74°
2026-04-14 21:46 48.67165 9.12652 2409 ft 139 kts 73°
2026-04-14 21:47 48.67444 9.14048 2162 ft 138 kts 73°
2026-04-14 21:47 48.67706 9.15426 1961 ft 137 kts 75°
2026-04-14 21:47 48.67963 9.16795 1778 ft 134 kts 73°
2026-04-14 21:47 48.68221 9.18141 1600 ft 132 kts 74°
2026-04-14 21:48 48.68467 9.19467 1432 ft 130 kts 74°
2026-04-14 21:48 48.68717 9.20775 1280 ft 127 kts 73°
2026-04-14 21:48 48.68938 9.21933 1249 ft 96 kts 74°
2026-04-14 21:48 48.69073 9.22631 1224 ft 41 kts 73°
2026-04-14 21:49 48.69171 9.22949 1218 ft 33 kts 50°
2026-04-14 21:49 48.69312 9.23146 1218 ft 12 kts 28°
2026-04-14 21:49 48.69383 9.23133 1221 ft 10 kts 324°
2026-04-14 21:49 48.69405 9.23032 1225 ft 12 kts 261°
2026-04-14 21:50 48.69374 9.22865 1228 ft 21 kts 254°
2026-04-14 21:50 48.69334 9.22645 1233 ft 21 kts 254°
2026-04-14 21:50 48.69293 9.22438 1245 ft 20 kts 253°
2026-04-14 21:50 48.69257 9.22245 1246 ft 18 kts 255°
2026-04-14 21:51 48.69226 9.22068 1246 ft 17 kts 254°
2026-04-14 21:51 48.69193 9.21904 1250 ft 16 kts 254°
2026-04-14 21:51 48.69159 9.21723 1258 ft 19 kts 253°
2026-04-14 21:51 48.69118 9.21513 1262 ft 22 kts 253°
2026-04-14 21:52 48.69073 9.21274 1270 ft 25 kts 255°
2026-04-14 21:52 48.69026 9.21027 1273 ft 23 kts 253°
2026-04-14 21:52 48.68981 9.20798 1276 ft 22 kts 255°
2026-04-14 21:52 48.68942 9.20580 1281 ft 21 kts 254°
2026-04-14 21:53 48.68904 9.20376 1287 ft 19 kts 254°
2026-04-14 21:53 48.68867 9.20188 1291 ft 18 kts 253°
2026-04-14 21:53 48.68830 9.20015 1295 ft 16 kts 245°
2026-04-14 21:53 48.68833 9.19897 1299 ft 10 kts 327°
2026-04-14 21:54 48.68884 9.19866 1302 ft 6 kts 321°
2026-04-14 21:54 48.68888 9.19811 1304 ft 7 kts 254°
2026-04-14 21:54 48.68872 9.19731 1307 ft 9 kts 253°
2026-04-14 21:54 48.68851 9.19620 1309 ft 13 kts 255°
2026-04-14 21:55 48.68845 9.19551 1311 ft 4 kts 296°
2026-04-14 21:55 48.68867 9.19534 1312 ft 4 kts 341°
2026-04-14 21:55 48.68899 9.19520 1314 ft 4 kts 343°
2026-04-14 21:55 48.68916 9.19512 1315 ft 0 kts 344°